[[{"header":{"parameterUnit":"m.s-1","parameterCategory":1,"la1":30.2991,"la2":30.254,"lo1":-89.0895,"lo2":-89.0444,"dy":0.0017,"dx":0.0017,"nx":28,"ny":28,"refTime":"2024-04-12T03:00:00:Z","depth":0,"parameterNumber":2,"parameterNumberName":"U-component_of_WINDS"},"data":[0,0,0,0,0,0,0,0,0,0,0,0,0,0,0,0,0,0,0,0,0,0,0,0,0,0,0,0,0,0,0,0,0,0,0,0,0,0,0,0,0,0,0,0,0,0,0,0,0,0,0,0,0,0,0,0,0,0,2.7524,2.7524,0,2.7573,2.7574,2.7574,2.7503,2.7501,2.7498,2.7496,2.755,2.7554,2.7558,0,0,0,0,0,0,0,0,0,0,0,0,0,2.7373,2.7376,2.7524,2.7524,2.7525,2.7573,2.7574,2.7574,2.7503,2.75,2.7497,2.7494,2.7549,2.7553,2.7558,0,0,0,0,0,0,0,0,0,0,0,0,0,2.7432,2.7377,2.7524,2.7495,2.7493,2.7573,2.7574,2.7575,2.7504,2.75,2.7497,2.7493,2.7547,2.7553,2.7558,2.7669,0,0,2.7576,2.7578,0,0,0,0,0,0,0,0,2.7429,2.7438,2.7499,2.7497,2.7495,2.7528,2.754,2.7607,2.7505,2.75,2.7496,2.7491,2.7546,2.7552,2.7569,2.7672,2.7674,2.7576,2.758,2.7582,2.7584,0,0,0,0,0,0,0,2.7425,2.7435,2.7543,2.75,2.7498,2.7482,2.7486,2.7552,2.7544,2.75,2.7495,2.7502,2.7544,2.7564,2.757,2.7675,2.7576,2.7581,2.7585,2.7587,2.7872,2.7876,0,0,0,0,0,0,2.7423,2.7432,2.7542,2.7545,2.7452,2.7487,2.7492,2.7521,2.7543,2.7542,2.7505,2.7498,2.7556,2.7563,2.7572,2.7704,2.7582,2.7588,2.7591,2.7868,2.7873,2.7878,0,0,0,0,0,0,2.742,2.7434,2.754,2.7487,2.7499,2.7494,2.7527,2.7524,2.7544,2.7546,2.7545,2.7526,2.7553,2.7564,2.7646,2.7704,2.759,2.7595,2.7863,2.787,2.7876,2.7968,0,0,0,0,0,0,2.7416,2.7433,2.7474,2.7488,2.7502,2.7612,2.7531,2.7528,2.7553,2.7545,2.7566,2.7566,2.7551,2.7637,2.7651,2.771,2.76,2.7858,2.7866,2.7874,2.796,2.7977,2.7991,0,0,0,0,0,2.7411,2.7499,2.7477,2.749,2.7553,2.7615,2.7624,2.7604,2.7558,2.76,2.7602,2.7565,2.7696,2.7646,2.7661,2.7723,2.7854,2.7864,2.7873,2.7953,2.7973,2.7991,0,0,0,0,0,0,2.7493,2.75,2.7476,2.757,2.7593,2.7603,2.7655,2.7626,2.7663,2.7654,2.7629,2.7634,2.7722,2.773,2.7676,2.7832,2.7768,2.7781,2.7823,2.7843,2.7858,2.7855,2.7605,0,0,0,0,0,2.7522,2.757,2.7574,2.7658,2.767,2.7661,2.7687,2.767,2.7693,2.7702,2.771,2.7735,2.7781,2.7812,2.7855,2.7961,2.7965,2.8011,2.8026,2.8039,2.8051,2.8108,2.8129,2.7909,2.7909,2.7908,0,0,2.7582,2.7592,2.7625,2.7674,2.769,2.7742,2.767,2.7728,2.7766,2.7711,2.7789,2.7796,2.7822,2.7916,2.7958,2.7926,2.8113,2.8051,2.8061,2.8066,2.812,2.8141,2.8159,2.7915,2.7914,2.7913,0,0,2.7719,2.7731,2.7802,2.7819,2.7842,2.7836,2.7853,2.7868,2.787,2.7948,2.7908,2.7954,2.8035,2.8055,2.8076,2.8222,2.8189,2.8236,2.8319,2.8375,2.8393,2.8408,2.8461,2.848,2.8248,2.8248,2.8248,0,2.7792,2.7867,2.7843,2.7904,2.7927,2.7879,2.7951,2.7969,2.8007,2.8025,2.7988,2.8088,2.8102,2.8201,2.8237,2.8255,2.8275,2.8234,2.8392,2.8407,2.8421,2.8471,2.8491,2.8254,2.8253,2.8252,2.8252,0,2.7956,2.8009,2.8064,2.81,2.813,2.8196,2.8183,2.8217,2.8197,2.8195,2.8275,2.829,2.8336,2.8358,2.834,2.8455,2.8434,2.8395,2.833,2.8448,2.8495,2.8514,2.8262,2.826,2.8258,2.8257,0,0,2.8146,2.8167,2.8188,2.8204,2.8227,2.8268,2.8333,2.8376,2.8406,2.8434,2.8489,2.8558,2.8522,2.8546,2.853,2.8579,2.8695,2.8534,2.8534,2.8564,2.8824,2.8854,2.8876,2.8673,2.8677,2.868,2.8822,0,2.8283,2.8394,2.8374,2.8482,2.8532,2.8487,2.8544,2.8565,2.8565,2.8608,2.8609,2.8659,2.8607,2.8621,2.8668,2.8671,2.8747,2.866,2.8726,2.8728,2.8721,2.8901,2.8932,2.9066,2.884,2.8843,2.8845,0,2.8458,2.8491,2.8604,2.8619,2.8639,2.8691,2.8729,2.8771,2.8794,2.8791,2.8818,2.8793,2.8859,2.8793,2.8885,2.8826,2.8852,2.8858,2.8863,2.8868,2.8794,2.8912,2.9108,2.9128,2.8874,2.8872,2.8869,0,2.8586,2.8659,2.8736,2.8751,2.8771,2.8808,2.8818,2.8838,2.8866,2.89,2.8918,2.896,2.8983,2.9017,2.9005,2.8957,2.91,2.9032,2.91,2.9101,2.9133,2.9131,2.9336,2.9149,2.9148,2.9148,2.9148,0,2.8742,2.8813,2.8794,2.8842,2.8921,2.8898,2.8977,2.8982,2.9,2.9049,2.9013,2.906,2.904,2.9087,2.9078,2.9156,2.9167,2.9167,2.9164,2.9171,2.9171,2.9187,2.9178,2.9153,2.9152,2.9151,2.915,0,2.8899,2.8888,2.897,2.8982,2.8986,2.9044,2.9055,2.9101,2.9098,2.916,2.9174,2.917,2.9223,2.9213,2.9272,2.9266,2.9364,2.9349,2.9356,2.9353,2.9422,2.9416,2.9645,2.9675,2.9468,2.947,2.9471,0,2.8999,2.9053,2.907,2.9099,2.9112,2.916,2.9188,2.9168,2.9199,2.923,2.9272,2.9321,2.936,2.9446,2.945,2.9495,2.9481,2.9559,2.9488,2.9493,2.9483,2.9481,2.9486,2.9573,2.9575,2.9577,2.9579,0,2.9178,2.9171,2.9211,2.9251,2.9284,2.9315,2.9342,2.9369,2.9351,2.9388,2.944,2.947,2.9529,2.9579,2.9621,2.9633,2.9604,2.9601,2.9619,2.9627,2.9629,2.963,2.9395,2.9596,2.9594,2.9593,2.9592,2.9591,2.9311,2.9356,2.9376,2.9423,2.9441,2.9467,2.951,2.9512,2.9555,2.9601,2.9587,2.9648,2.9671,2.9724,2.9741,2.9789,2.9761,2.9787,2.9794,2.9801,2.9809,2.9621,2.9797,2.9796,2.9796,2.9795,2.9795,0,2.9489,2.9499,2.9542,2.958,2.9618,2.9585,2.9614,2.9647,2.97,2.9724,2.9762,2.9823,2.9872,2.9879,2.9925,2.9962,2.995,2.9975,2.9973,2.9976,2.9832,2.9812,2.9984,2.9984,2.9984,2.9984,2.9984,2.9984,2.9586,2.9662,2.9657,2.9742,2.9752,2.981,2.9829,2.9853,2.9872,2.9941,2.9981,2.9985,3.0002,3.005,3.0093,3.0094,3.0113,3.0144,3.014,3.0005,2.9986,2.9968,2.9949,3.0148,3.0148,3.028,3.0282,3.0283]},{"header":{"parameterUnit":"m.s-1","parameterCategory":1,"la1":30.2991,"la2":30.254,"lo1":-89.0895,"lo2":-89.0444,"dy":0.0017,"dx":0.0017,"nx":28,"ny":28,"refTime":"2024-04-12T03:00:00:Z","depth":0,"parameterNumber":3,"parameterNumberName":"V-component_of_WINDS"},"data":[0,0,0,0,0,0,0,0,0,0,0,0,0,0,0,0,0,0,0,0,0,0,0,0,0,0,0,0,0,0,0,0,0,0,0,0,0,0,0,0,0,0,0,0,0,0,0,0,0,0,0,0,0,0,0,0,0,0,-1.5604,-1.5606,0,-1.5733,-1.5735,-1.5736,-1.5752,-1.575,-1.5749,-1.5748,-1.5882,-1.5886,-1.5891,0,0,0,0,0,0,0,0,0,0,0,0,0,-1.5374,-1.5378,-1.5604,-1.5606,-1.5607,-1.5733,-1.5735,-1.5737,-1.5752,-1.575,-1.5749,-1.5747,-1.588,-1.5886,-1.5891,0,0,0,0,0,0,0,0,0,0,0,0,0,-1.5486,-1.538,-1.5604,-1.563,-1.5634,-1.5733,-1.5735,-1.5737,-1.5752,-1.575,-1.5748,-1.5747,-1.5878,-1.5885,-1.5892,-1.5974,0,0,-1.5914,-1.5917,0,0,0,0,0,0,0,0,-1.5479,-1.5494,-1.5625,-1.5629,-1.5633,-1.5724,-1.5703,-1.5817,-1.5753,-1.5707,-1.5748,-1.5746,-1.5831,-1.5842,-1.587,-1.598,-1.5986,-1.5914,-1.5919,-1.5922,-1.5924,0,0,0,0,0,0,0,-1.5472,-1.5489,-1.5655,-1.5627,-1.5632,-1.5636,-1.565,-1.5724,-1.5778,-1.5711,-1.5713,-1.5727,-1.5833,-1.5863,-1.5873,-1.5988,-1.5914,-1.5921,-1.5925,-1.5928,-1.6174,-1.6177,0,0,0,0,0,0,-1.5459,-1.5482,-1.5651,-1.5659,-1.555,-1.5642,-1.5658,-1.5697,-1.5778,-1.5788,-1.5729,-1.5728,-1.5852,-1.5865,-1.5878,-1.5981,-1.5922,-1.5928,-1.5933,-1.6172,-1.6175,-1.6177,0,0,0,0,0,0,-1.5454,-1.5474,-1.5646,-1.5571,-1.5593,-1.5648,-1.5692,-1.57,-1.5731,-1.5791,-1.5801,-1.575,-1.5851,-1.5868,-1.5951,-1.5986,-1.5932,-1.5938,-1.6169,-1.6173,-1.6176,-1.6186,0,0,0,0,0,0,-1.5447,-1.5472,-1.5503,-1.5572,-1.5597,-1.5715,-1.5694,-1.5704,-1.5743,-1.5743,-1.5813,-1.5823,-1.5851,-1.594,-1.5958,-1.5995,-1.5944,-1.6167,-1.6171,-1.6175,-1.6183,-1.6189,-1.6195,0,0,0,0,0,-1.5439,-1.55,-1.5504,-1.5524,-1.5637,-1.5717,-1.5732,-1.5762,-1.5746,-1.5778,-1.5817,-1.5821,-1.5979,-1.5948,-1.5968,-1.6008,-1.6164,-1.617,-1.6175,-1.618,-1.6188,-1.6195,0,0,0,0,0,0,-1.5434,-1.551,-1.5515,-1.56,-1.5652,-1.572,-1.5761,-1.5769,-1.5827,-1.5824,-1.586,-1.5876,-1.5957,-1.5991,-1.5955,-1.6093,-1.607,-1.608,-1.6067,-1.6076,-1.6081,-1.6072,-1.595,0,0,0,0,0,-1.5443,-1.5501,-1.5564,-1.5634,-1.5659,-1.5706,-1.5742,-1.5761,-1.5816,-1.5838,-1.5883,-1.5937,-1.5999,-1.6039,-1.6099,-1.6188,-1.6204,-1.6225,-1.6231,-1.6236,-1.6244,-1.6295,-1.6305,-1.6194,-1.6194,-1.6194,0,0,-1.5462,-1.551,-1.5545,-1.5634,-1.5676,-1.5737,-1.5724,-1.5788,-1.5834,-1.5848,-1.5929,-1.5964,-1.6027,-1.6113,-1.6153,-1.6143,-1.6278,-1.6242,-1.6246,-1.6251,-1.6301,-1.6311,-1.6321,-1.6198,-1.6197,-1.6197,0,0,-1.5527,-1.5569,-1.5633,-1.5676,-1.574,-1.5771,-1.5786,-1.5853,-1.5876,-1.5958,-1.597,-1.6026,-1.6131,-1.6176,-1.6213,-1.6297,-1.6304,-1.6316,-1.6348,-1.6397,-1.6406,-1.6413,-1.6445,-1.6455,-1.6323,-1.6323,-1.6323,0,-1.5543,-1.5634,-1.5664,-1.5728,-1.5768,-1.5784,-1.5849,-1.5889,-1.597,-1.5997,-1.5985,-1.612,-1.6163,-1.6261,-1.6281,-1.631,-1.633,-1.6308,-1.6402,-1.641,-1.6418,-1.6448,-1.646,-1.6325,-1.6324,-1.6324,-1.6324,0,-1.565,-1.5713,-1.5757,-1.5834,-1.5879,-1.5943,-1.5984,-1.6026,-1.6041,-1.6073,-1.6157,-1.621,-1.6282,-1.6307,-1.6322,-1.6407,-1.6399,-1.6394,-1.6373,-1.6429,-1.6458,-1.647,-1.6326,-1.6326,-1.6325,-1.6325,0,0,-1.5715,-1.581,-1.5826,-1.5862,-1.5935,-1.5985,-1.605,-1.6121,-1.6156,-1.6212,-1.6269,-1.6359,-1.6355,-1.6396,-1.6417,-1.646,-1.6526,-1.645,-1.6452,-1.6463,-1.6624,-1.6628,-1.6641,-1.6531,-1.6533,-1.6535,-1.6619,0,-1.579,-1.5907,-1.5937,-1.6036,-1.6096,-1.6113,-1.617,-1.6222,-1.6254,-1.631,-1.6346,-1.641,-1.6399,-1.6425,-1.6468,-1.6508,-1.6559,-1.6503,-1.6585,-1.6588,-1.6569,-1.6656,-1.666,-1.6737,-1.6631,-1.6633,-1.6634,0,-1.5892,-1.595,-1.6056,-1.6123,-1.6149,-1.62,-1.6267,-1.632,-1.638,-1.6401,-1.6448,-1.6465,-1.6536,-1.651,-1.6609,-1.657,-1.6606,-1.6631,-1.6635,-1.6644,-1.6614,-1.6668,-1.6762,-1.6774,-1.6652,-1.6651,-1.6649,0,-1.593,-1.6035,-1.6112,-1.6142,-1.6222,-1.6258,-1.6293,-1.635,-1.6391,-1.6451,-1.6478,-1.6545,-1.6582,-1.6634,-1.6669,-1.6647,-1.6766,-1.6743,-1.6786,-1.6785,-1.681,-1.6808,-1.6912,-1.6832,-1.6832,-1.6831,-1.6831,0,-1.6011,-1.6075,-1.613,-1.6178,-1.6251,-1.6286,-1.6357,-1.6393,-1.6445,-1.65,-1.6519,-1.6571,-1.6615,-1.6673,-1.6701,-1.6779,-1.6796,-1.6815,-1.6822,-1.6814,-1.6812,-1.6838,-1.6834,-1.6835,-1.6834,-1.6833,-1.6833,0,-1.6065,-1.6105,-1.619,-1.6259,-1.6278,-1.6329,-1.6388,-1.6436,-1.6469,-1.654,-1.6558,-1.6611,-1.6681,-1.6722,-1.681,-1.6829,-1.6916,-1.692,-1.6896,-1.6899,-1.694,-1.6936,-1.7065,-1.7084,-1.699,-1.6991,-1.6992,0,-1.6114,-1.6164,-1.6238,-1.6277,-1.6312,-1.6374,-1.6416,-1.6453,-1.6496,-1.6569,-1.6608,-1.6679,-1.6737,-1.6848,-1.6895,-1.6963,-1.697,-1.701,-1.698,-1.6971,-1.6972,-1.6968,-1.6974,-1.7015,-1.7016,-1.7017,-1.7018,0,-1.6197,-1.6214,-1.6274,-1.6341,-1.639,-1.6445,-1.6499,-1.653,-1.6576,-1.6624,-1.6695,-1.6741,-1.6831,-1.6902,-1.6974,-1.7011,-1.7023,-1.7027,-1.7041,-1.7033,-1.7017,-1.7027,-1.691,-1.7024,-1.7023,-1.7023,-1.7022,-1.7022,-1.6251,-1.6297,-1.6356,-1.6422,-1.6467,-1.6518,-1.6566,-1.6606,-1.6666,-1.6742,-1.6761,-1.6836,-1.6897,-1.6995,-1.7034,-1.7095,-1.7088,-1.7107,-1.7113,-1.7117,-1.7119,-1.7007,-1.7108,-1.7108,-1.7108,-1.7108,-1.7108,0,-1.6336,-1.6375,-1.6435,-1.6511,-1.6563,-1.6569,-1.663,-1.6674,-1.674,-1.6795,-1.6853,-1.6936,-1.7005,-1.7058,-1.7129,-1.7168,-1.7175,-1.7185,-1.7183,-1.7192,-1.712,-1.7102,-1.7178,-1.7178,-1.7178,-1.7178,-1.7178,-1.7178,-1.6386,-1.6464,-1.6489,-1.659,-1.6629,-1.6703,-1.6738,-1.6785,-1.6829,-1.6921,-1.6979,-1.7013,-1.7068,-1.7143,-1.7207,-1.7221,-1.7247,-1.7257,-1.7272,-1.7204,-1.7196,-1.7189,-1.7172,-1.7262,-1.7262,-1.7338,-1.7339,-1.7339]}]]